Langdon, ND

8:35 PM CST on December 07, 2016 (GMT -0600)
Langdon

Weather History for KD55 - October, 2012

Change the Weather History Date:

Monday, October 22, 2012

  Actual Average (KDVL) Record (KDVL)
Temperature  
Mean Temperature 36 °F -  
Max Temperature 41 °F 52 °F 79 °F (1963)
Min Temperature 30 °F 32 °F 18 °F (1976)
Degree Days  
Heating Degree Days 30    
Moisture  
Dew Point 31 °F    
Average Humidity 84    
Maximum Humidity 100    
Minimum Humidity 70    
Precipitation  
Precipitation 0.00 in - - ()
Sea Level Pressure  
Sea Level Pressure 30.06 in    
Wind  
Wind Speed 7 mph (NE)    
Max Wind Speed 17 mph    
Max Gust Speed 23 mph    
Visibility 10 miles    
Events Rain    
Averages and records for this station are not official NWS values.
T = Trace of Precipitation, MM = Missing Value Source: NWS Daily Summary

Daily Weather History Graph

Daily Weather History Graph

Search for Another Location

Airport or City:

Trip Planner

Search our weather history database for the weather conditions in past years. The results will help you decide how hot, cold, wet, or windy it might be!

Date:

Astronomy

Oct. 22, 2012 Rise Set
Actual Time 8:05 AM CDT 6:29 PM CDT
Civil Twilight 7:33 AM CDT 7:01 PM CDT
Nautical Twilight 6:56 AM CDT 7:38 PM CDT
Astronomical Twilight 6:19 AM CDT 8:14 PM CDT
Moon 3:09 PM CDT (10/22) 12:19 AM CDT (10/22)
Length of Visible Light 11h 28m
Length of Day
10h 24m
First Quarter, 56% of the Moon is Illuminated
Oct 22
First Quarter
Oct 29
Full
Nov 6
Last Quarter
Nov 13
New
Nov 20
First Quarter

Hourly Weather History & Observations

Time (CDT) Temp. Windchill Dew Point Humidity Pressure Visibility Wind Dir Wind Speed Gust Speed Precip Events Conditions
12:15 AM 32.0 °F 28.7 °F 28.4 °F 87% 30.07 in 10.0 mi NNW 3.5 mph - N/A   Clear
12:35 AM 32.0 °F - 28.4 °F 87% 30.08 in 10.0 mi Calm Calm - N/A   Clear
12:55 AM 32.0 °F - 28.4 °F 87% 30.08 in 10.0 mi Calm Calm - N/A   Clear
1:35 AM 30.2 °F 23.4 °F 28.4 °F 93% 30.08 in 10.0 mi North 6.9 mph - N/A   Clear
1:55 AM 32.0 °F 24.8 °F 28.4 °F 87% 30.08 in 10.0 mi NNW 8.1 mph - N/A   Clear
2:55 AM 30.2 °F 23.4 °F 26.6 °F 86% 30.08 in 10.0 mi North 6.9 mph - N/A   Clear
3:15 AM 30.2 °F 23.4 °F 26.6 °F 86% 30.09 in 10.0 mi North 6.9 mph - N/A   Clear
3:55 AM 32.0 °F 24.8 °F 26.6 °F 80% 30.08 in 10.0 mi NNE 8.1 mph - N/A   Clear
4:55 AM 30.2 °F 24.3 °F 28.4 °F 93% 30.09 in 10.0 mi North 5.8 mph - N/A   Scattered Clouds
5:15 AM 32.0 °F - 28.4 °F 87% 30.09 in 10.0 mi Calm Calm - N/A   Partly Cloudy
5:35 AM 32.0 °F 27.5 °F 28.4 °F 87% 30.10 in 10.0 mi North 4.6 mph - N/A   Clear
5:55 AM 32.0 °F 28.7 °F 28.4 °F 87% 30.10 in 10.0 mi North 3.5 mph - N/A   Clear
6:15 AM 32.0 °F - 28.4 °F 87% 30.10 in 10.0 mi Calm Calm - N/A   Clear
6:55 AM 32.0 °F 28.7 °F 28.4 °F 87% 30.11 in 10.0 mi NNE 3.5 mph - N/A   Clear
7:15 AM 32.0 °F 28.7 °F 28.4 °F 87% 30.11 in 10.0 mi NNE 3.5 mph - N/A   Clear
7:35 AM 32.0 °F 28.7 °F 28.4 °F 87% 30.12 in 10.0 mi NNE 3.5 mph - N/A   Mostly Cloudy
7:55 AM 32.0 °F 27.5 °F 28.4 °F 87% 30.12 in 10.0 mi ENE 4.6 mph - N/A   Overcast
8:55 AM 33.8 °F 26.4 °F 30.2 °F 87% 30.11 in 10.0 mi ENE 9.2 mph - N/A   Overcast
9:35 AM 33.8 °F 26.4 °F 30.2 °F 87% 30.11 in 10.0 mi ENE 9.2 mph - N/A   Overcast
9:55 AM 35.6 °F 29.2 °F 30.2 °F 81% 30.12 in 10.0 mi ENE 8.1 mph - N/A   Overcast
10:15 AM 35.6 °F 28.6 °F 30.2 °F 81% 30.12 in 10.0 mi ENE 9.2 mph - N/A   Overcast
10:35 AM 35.6 °F 27.5 °F 30.2 °F 81% 30.12 in 10.0 mi East 11.5 mph - N/A   Mostly Cloudy
10:55 AM 35.6 °F 28.0 °F 30.2 °F 81% 30.11 in 10.0 mi East 10.4 mph - N/A   Partly Cloudy
11:35 AM 37.4 °F 29.8 °F 32.0 °F 81% 30.11 in 10.0 mi ENE 11.5 mph - N/A   Overcast
12:15 PM 37.4 °F 30.8 °F 32.0 °F 81% 30.12 in 10.0 mi East 9.2 mph - N/A   Overcast
12:35 PM 37.4 °F 30.3 °F 32.0 °F 81% 30.11 in 10.0 mi East 10.4 mph - N/A   Mostly Cloudy
12:55 PM 37.4 °F 31.4 °F 32.0 °F 81% 30.11 in 10.0 mi East 8.1 mph - N/A   Mostly Cloudy
1:15 PM 39.2 °F 32.5 °F 32.0 °F 75% 30.10 in 10.0 mi ENE 10.4 mph - N/A   Overcast
1:35 PM 39.2 °F 33.6 °F 32.0 °F 75% 30.10 in 10.0 mi East 8.1 mph - N/A   Overcast
1:55 PM 39.2 °F 33.0 °F 32.0 °F 75% 30.10 in 10.0 mi NE 9.2 mph - N/A   Overcast
2:15 PM 41.0 °F 34.7 °F 32.0 °F 70% 30.09 in 10.0 mi ENE 10.4 mph - N/A   Overcast
2:35 PM 41.0 °F 35.8 °F 32.0 °F 70% 30.09 in 10.0 mi NE 8.1 mph - N/A   Overcast
3:15 PM 41.0 °F 34.3 °F 32.0 °F 70% 30.07 in 10.0 mi East 11.5 mph - N/A   Overcast
3:35 PM 41.0 °F 34.7 °F 32.0 °F 70% 30.06 in 10.0 mi East 10.4 mph - N/A   Overcast
3:55 PM 41.0 °F 33.5 °F 32.0 °F 70% 30.06 in 10.0 mi ENE 13.8 mph - N/A   Overcast
4:15 PM 41.0 °F 33.9 °F 32.0 °F 70% 30.05 in 10.0 mi ENE 12.7 mph - N/A   Overcast
4:35 PM 39.2 °F 30.8 °F 32.0 °F 75% 30.04 in 10.0 mi ENE 15.0 mph 18.4 mph N/A   Overcast
4:55 PM 39.2 °F 30.5 °F 32.0 °F 75% 30.04 in 10.0 mi NE 16.1 mph - N/A   Overcast
5:15 PM 39.2 °F 31.6 °F 32.0 °F 75% 30.03 in 10.0 mi NE 12.7 mph 19.6 mph N/A   Overcast
5:35 PM 39.2 °F 32.0 °F 32.0 °F 75% 30.03 in 10.0 mi NE 11.5 mph - N/A   Overcast
6:15 PM 37.4 °F 27.8 °F 32.0 °F 81% 30.02 in 10.0 mi ENE 17.3 mph 23.0 mph N/A   Overcast
6:35 PM 37.4 °F 28.5 °F 32.0 °F 81% 30.02 in 10.0 mi ENE 15.0 mph 20.7 mph N/A   Overcast
6:55 PM 37.4 °F 28.5 °F 32.0 °F 81% 30.01 in 10.0 mi ENE 15.0 mph 20.7 mph N/A   Overcast
7:35 PM 37.4 °F 28.2 °F 33.8 °F 87% 30.00 in 10.0 mi ENE 16.1 mph - N/A   Overcast
7:55 PM 37.4 °F 27.8 °F 35.6 °F 93% 30.00 in 10.0 mi ENE 17.3 mph - N/A   Overcast
8:35 PM 37.4 °F 28.2 °F 35.6 °F 93% 29.99 in 10.0 mi ENE 16.1 mph 20.7 mph N/A   Scattered Clouds
8:55 PM 37.4 °F 28.2 °F 35.6 °F 93% 29.98 in 10.0 mi ENE 16.1 mph 21.9 mph N/A   Partly Cloudy
9:15 PM 37.4 °F 27.8 °F 35.6 °F 93% 29.98 in 10.0 mi ENE 17.3 mph 21.9 mph N/A   Scattered Clouds
9:55 PM 37.4 °F 28.2 °F 35.6 °F 93% 29.98 in 10.0 mi East 16.1 mph 21.9 mph N/A   Partly Cloudy
10:35 PM 37.4 °F 29.3 °F 37.4 °F 100% 29.97 in 10.0 mi East 12.7 mph - N/A   Mostly Cloudy
11:15 PM 37.4 °F 28.9 °F 37.4 °F 100% 29.95 in 10.0 mi ENE 13.8 mph - N/A   Mostly Cloudy
11:35 PM 37.4 °F 28.9 °F 37.4 °F 100% 29.93 in 7.0 mi ENE 13.8 mph - N/A Rain Light Rain
11:55 PM 37.4 °F 28.2 °F 37.4 °F 100% 29.92 in 7.0 mi ENE 16.1 mph 20.7 mph N/A Rain Light Rain